www.pogodaiklimat.ru

Погода и климат >> Архив погоды >> Португалия >> Viana Do Castelo


ПОГОДА в Viana Do Castelo

  • Прогноз погоды в Viana Do Castelo
  • Монитор погоды в Viana Do Castelo
  • Климат города

АРХИВ ПОГОДЫ в Viana Do Castelo

Время (UTC), дата Ветер
(напр.,м/с)
 
Видим.   Явления Облачность Т
(С)
Тd
(С)
f
(%)
Тe
(С)
Тes
(С)
Комфортность P
(гПа)
Po
(гПа)
Тmin
(С)
Tmax
(С)
R
(мм)
R24
(мм)
S
(см)
09 10.12 ЮВ 2-31
{32}
14 км 5/1 600 м
[Cu hum Ci sp]
+10.2 +3.3 62 +9 +9 1028.2 1022.3
12 10.12 В 3 14 км 8/0
[Ci sp]
+15.1 +7.7 61 +14 +17 1027.1 1021.4
15 10.12 З 2-29
{38}
14 км 8/0
[Cs]
+17.9 +12.6 71 +18 +20 1025.0 1019.2
18 10.12 СВ 2-22
{29}
14 км 6/0
[Cs]
+11.3 +10.0 92 +10 +10 1024.8 1019.0 +18.4
21 10.12 ЮВ 19-31
{31}
н/о н/о +9.6 +7.9 89 +3 +3 1023.9 1018.0
00 11.12 Ю 21-32
{32}
н/о н/о +9.1 +5.3 77 +3 +3 1023.6 1017.7
03 11.12 ЮВ 15-30
{32}
н/о н/о +8.1 +4.1 76 +2 +2 1022.1 1016.2
06 11.12 ЮВ 14-29
{30}
н/о н/о +7.3 +4.4 82 +1 +1 1021.8 1015.8 +7.3
09 11.12 В 3-32
{32}
14 км 4/1 700 м
[Sc Cc]
+7.8 +5.3 84 +5 +5 1023.4 1017.5
12 11.12 штиль 0
{30}
14 км 10/10 700 м
[Sc]
+14.5 +10.1 75 +14 +14 1023.9 1018.1
15 11.12 Ю 3-30
{30}
14 км 10/10 660 м
[Cu Sc]
+14.1 +11.5 84 +13 +13 1023.0 1017.2
18 11.12 14 км н/о +12.6 +11.0 90 1024.5 1018.7 +16.0
21 11.12 ЮВ 15-29
{40}
н/о н/о +11.4 +10.6 95 +7 +7 1024.6 1018.8
00 12.12 ЮВ 13-29
{29}
н/о н/о +11.3 +11.1 99 +7 +7 1024.2 1018.4
03 12.12 ЮВ 13
{28}
н/о н/о +11.3 +10.8 97 +7 +7 1023.7 1017.9
06 12.12 ЮВ 12
{29}
н/о н/о +10.7 +10.6 99 +6 +6 1022.7 1016.8 +10.5
09 12.12 штиль 0 2400 м дымка 10/10 210 м
[St]
+11.2 +11.0 99 +10 +10 1022.6 1016.7
12 12.12 Ю 1
{5}
9000 м дымка 10/10 600 м
[Cu Sc]
+13.7 +12.0 89 +14 +14 1020.6 1014.8
15 12.12 -8
{34}
8000 м дымка 10/10 570 м
[Cu Sc]
+14.1 +12.8 92 1018.4 1012.7
18 12.12 СВ 2-7
{7}
9000 м в посл. час дождь 10/10 540 м
[Cu Sc]
+13.5 +12.7 95 +13 +13 1015.8 1010.1 +14.3 0.1
21 12.12 С 7-60
{60}
н/о н/о +13.4 +12.8 96 +11 +11 1012.2 1006.5 5
00 13.12 С 8-35
{53}
н/о н/о +13.9 +13.9 100 +11 +11 1009.7 1004.0 16
03 13.12 С 5-12
{15}
н/о н/о +10.9 +7.8 81 +8 +8 1010.7 1005.0 0.4
06 13.12 С 5 н/о н/о +10.7 +7.1 78 +8 +8 1011.7 1005.9 +9.9 0.1
09 13.12 16 км в посл. час ливневой дождь н/о +8.2 +7.8 97 1015.0 1009.2 1
12 13.12 штиль 0 18 км в посл. час ливневой дождь 8/8 500 м
[Cu Sc]
+10.3 +8.1 86 +10 +11 1017.0 1011.2 0.4
15 13.12 -13
{13}
18 км в посл. час ливневой дождь 5/5 500 м
[Cu Sc]
+11.8 +8.8 82 1018.5 1012.7 0.8
18 13.12
{53}
16 км в посл. час ливневой дождь 3/3 500 м
[Cu Sc]
+9.4 +8.2 92 1020.3 1014.5 +13.0 0.7
21 13.12 СВ 1 н/о н/о +7.2 +6.6 96 +6 +6 1021.8 1015.9 7
00 14.12 СВ 1 н/о н/о +6.5 +6.3 99 +5 +5 1023.4 1017.5
03 14.12 СВ 2 н/о н/о +7.1 +7.1 100 +5 +5 1023.8 1017.9 0.1
06 14.12 СВ 2 н/о н/о +7.1 +6.9 99 +5 +5 1024.4 1018.5 +6.4
09 14.12 СВ 2
{57}
7000 м дымка 10/10 480 м
[Cu Sc]
+8.0 +8.0 100 +6 +6 1026.2 1020.3
12 14.12 штиль 0 9000 м дымка 10/10 480 м
[Cu Sc]
+11.3 +10.4 94 +11 +11 1026.8 1020.9
15 14.12 СВ 1 12 км 10/10 500 м
[Cu Sc]
+12.9 +11.1 89 +13 +13 1025.0 1019.2
18 14.12
{6}
10 км слабый ливневой дождь 10/10 500 м
[Cu Sc]
+12.0 +11.4 96 1025.8 1020.0 +13.1 0.1
21 14.12 СВ 1 н/о н/о +12.0 +11.8 99 +12 +12 1025.2 1019.4 0.3
00 15.12 -6
{7}
н/о н/о +12.6 +12.3 98 1025.3 1019.4 1
03 15.12 -8
{11}
н/о н/о +12.8 +12.6 99 1023.9 1018.1 2
06 15.12 С 4 н/о н/о +12.9 +12.6 98 +11 +11 1023.5 1017.6 +11.7
09 15.12 -6
{9}
н/о н/о +13.1 +12.8 98 1023.8 1018.0 0.1
12 15.12 С 4-11
{11}
н/о н/о +13.5 +13.3 99 +12 +12 1023.2 1017.4 0.9
15 15.12 С 4-13
{14}
н/о н/о +14.0 +13.8 99 +12 +12 1020.9 1015.1 2
18 15.12 С 5-12
{12}
н/о н/о +14.3 +14.3 100 +12 +12 1020.2 1014.4 +14.3 2
21 15.12 С 2 н/о н/о +14.2 +14.2 100 +14 +14 1020.3 1014.5 22
00 16.12 С 1 н/о н/о +13.8 +13.8 100 +14 +14 1019.1 1013.3
03 16.12 С 1 н/о н/о +12.6 +12.5 99 +12 +12 1018.5 1012.7
06 16.12 С 2
{5}
н/о н/о +12.2 +10.6 90 +11 +11 1018.6 1012.8 +11.9
09 16.12 С 5-9
{12}
н/о н/о +13.1 +9.9 81 +11 +11 1020.0 1014.2
12 16.12 С 5-9
{11}
н/о н/о +13.9 +9.0 72 +12 +12 1022.3 1016.5
15 16.12 С 2
{8}
н/о н/о +13.3 +7.9 70 +13 +13 1023.5 1017.7
18 16.12 С 1
{5}
н/о н/о +9.7 +7.0 83 +9 +9 1025.8 1019.9 +14.1
21 16.12 н/о н/о +7.2 +6.7 97 1027.6 1021.6 0.7
00 17.12 СВ 2 н/о н/о +6.8 +6.7 99 +4 +4 1028.3 1022.3
03 17.12 СВ 2 н/о н/о +5.9 +5.7 99 +3 +3 1028.5 1022.5
06 17.12 СВ 2 н/о н/о +7.7 +7.3 97 +5 +5 1028.1 1022.2 +5.8

 

Местоположение метеостанции Viana Do Castelo (Португалия): широта 41.63 долгота -8.80 высота над уровнем моря 48 м.

В архиве по умолчанию представлена погода в Viana Do Castelo за последнюю неделю. Архивные данные за месяц целиком и за предыдущие месяцы, начиная с января 2011 года, Вы можете получить, выбрав интересующий диапазон дат из раскрывающегося списка и нажав кнопку "Ввод!".


*Определитесь, кто Вы:
робот инопланетянин человек

Внимание! Время в таблицах - всемирное. Для получения местного времени необходимо прибавить поправку, которая в Viana Do Castelo равна 0 ч.

Смотрите также архив погоды в соседних городах и на ближайших метеорологических станциях:

Погода в Porto (Португалия) (46 км)
Погода в Vigo (Испания) (68 км)
Погода в Ovar (Португалия) (80 км)
Погода в Pontevedra (Испания) (90 км)
Погода в Vila Real (Португалия) (99 км)
Погода в Orense (Испания) (109 км)
Погода в Viseu (Португалия) (127 км)
Погода в Santiago (Испания) (145 км)
Погода в Coimbra (Португалия) (167 км)
Погода в Penhas Douradas (Португалия) (171 км)

Пояснения к столбцам:

Ветер - указаны скорость ветра в м/с - средняя за 10 мин, порывы в срок и между сроками (в фигурных скобках) и направление, откуда дует ветер: С - северный, СВ - северо-восточный, В - восточный, ЮВ - юго-восточный, Ю - южный, ЮЗ - юго-западный, З - западный, СЗ - северо-западный.
Видимость - горизонтальная дальность видимости в метрах или километрах. При видимости от 1 до 10 км при отсутствии осадков обычно наблюдается дымка, при ухудшении видимости до 1 км и менее - туман. В сухую погоду видимость может ухудшаться дымом, пылью или мглою.
Явления - указаны атмосферные явления, наблюдавшиеся в срок или в последний час перед сроком; фигурными скобками обозначены явления, наблюдавшиеся между сроками (за 1-3 часа до срока); квадратными скобками обозначены град или гололедные отложения с указанием их диаметра в мм.
Облачность - указаны через наклонную черту общая и нижняя облачность в баллах и высота нижней границы облаков в метрах; квадратными скобками обозначены формы облаков: Ci - перистые, Cs - перисто-слоистые, Cc - перисто-кучевые, Ac - высококучевые, As - высокослоистые, Sc - слоисто-кучевые, Ns - слоисто-дождевые, Cu - кучевые, Cb - кучево-дождевые. Подробнее классификацию облаков см. в Атласе облаков (PDF).
T - Температура воздуха - температура, измеренная на высоте 2 м над землей.
Td - Температура точки росы - температура, при понижении до которой содержащийся в воздухе водяной пар достигнет насыщения.
f - Относительная влажность воздуха - влажноcть воздуха, измеренная на высоте 2 м над землей.
Te - Эффективная температура - температура, которую ощущает одетый по сезону человек в тени. Характеристика душности погоды. При расчете учитывается влияние влажности воздуха и скорости ветра на теплоощущения человека.
Tes - Эффективная температура на солнце - температура, которую ощущает человек, с поправкой на солнечный нагрев. Характеристика знойности погоды. Зависит от высоты солнца над горизонтом, облачности и скорости ветра. Ночью, в пасмурную погоду, а также при ветре 12 м/с и более поправка равна нулю.
P - Атмосферное давление - приведенное к уровню моря атмосферное давление.
Po - Атмосферное давление - измеренное на уровне метеостанции атмосферное давление.
Tmin - Минимальная температура - минимум температуры воздуха на высоте 2 м над землей.
Tmax - Максимальная температура - максимум температуры воздуха на высоте 2 м над землей.
R - Количество осадков - Количество выпавших осадков за период времени, мм. При наведении курсора мыши на число - период времени, за который выпало указанное количество осадков.
R24 - Количество осадков - Количество выпавших осадков за 24 часа, мм.
S - Снежный покров - Высота снежного покрова, см. При наведении курсора мыши на число - состояние снежного покрова и степень покрытия местности в баллах.